Location: Aldeanueva del Monte
(41.3351°N, 3.5448°W)
Time: 10:54:19
(UTC+00:00)

Daily predictions for brighter satellites

Satellite Brightness Start Highest point End
(mag) Time Altitude Azimuth Time Altitude Azimuth Time Altitude Azimuth
COSMOS 2406 4.4 19:51:12 10° SSE 19:55:27 22° E 19:59:43 10° NE
SL-4 R/B 3.8 19:53:54 10° W 19:56:52 22° SW 19:59:54 10° S
Cosmos 1782 3.6 19:54:36 10° SSE 19:57:33 26° E 20:00:31 10° NNE
Cosmos 724 4.4 19:52:09 10° SSW 19:58:13 88° WNW 20:04:11 10° NNE
CZ-4B R/B 4.0 19:54:37 10° SSE 19:58:34 62° ENE 20:02:34 10° N
Okean-O 4.5 19:56:02 10° E 19:58:38 16° ENE 20:01:14 10° NNE
CZ-4 R/B 1.3 19:55:08 10° SSE 19:58:39 53° ENE 20:02:12 10° N
Cosmos 1980 Rocket 2.4 19:54:26 10° NNW 20:00:05 60° ENE 20:05:40 10° SE
CSL-04 Rocket 3.8 19:58:07 10° SSE 20:03:38 89° W 20:09:05 10° NNW
ASTEX 1 3.4 19:59:32 10° S 20:04:29 86° E 20:09:28 10° N
Cosmos 1725 Rocket 4.1 20:01:11 10° SSE 20:07:16 56° E 20:13:20 10° NNE
Cosmos 2333 Rocket 4.1 20:08:00 10° N 20:11:36 17° NE 20:15:12 10° E
ERS-1 Rocket 3.1 20:07:23 10° SSE 20:12:17 57° ENE 20:17:12 10° N
ATLAS 3B R/B 3.2 20:05:14 10° NW 20:12:52 67° WSW 20:19:58 10° SSE
USA 305 2.6 20:14:40 10° NW 20:18:47 88° SW 20:21:50 14° SE
Cosmos 2173 Rocket 4.3 20:15:44 10° SSW 20:21:50 73° W 20:28:05 10° N
Cosmos 2016 Rocket 4.0 20:15:40 10° S 20:21:51 66° E 20:27:59 10° NNE
CZ-4B DEB 4.2 20:16:45 10° SSE 20:22:15 83° ENE 20:27:49 10° NNW
Cosmos 1461 3.4 20:20:04 10° S 20:23:15 28° ESE 20:26:26 10° NE
Cosmos 2360 Rocket 4.3 20:22:47 10° NNE 20:25:17 13° NE 20:27:46 10° ENE
CZ-4B R/B 3.4 20:19:46 10° SSE 20:25:21 64° ENE 20:30:54 10° N
CZ-4C R/B 4.0 20:23:19 10° WSW 20:27:00 29° NW 20:31:31 10° NNE
Cosmos 1992 Rocket 4.2 20:22:59 10° S 20:27:59 49° ESE 20:32:59 10° NNE
ISS -0.9 20:32:13 10° WNW 20:34:36 18° NNW 20:36:59 10° NNE
Cosmos 1437 Rocket 4.0 20:36:40 18° ESE 20:37:25 19° E 20:40:03 10° NE
Feng Yun 1-1 Rocket 4.4 20:34:27 10° S 20:39:49 72° WSW 20:45:15 10° NNW
Gbstr 26 Del rocket 3.4 20:39:42 10° WNW 20:44:45 59° SW 20:47:30 21° SSE
DEBRIS 4.4 20:42:21 10° WNW 20:44:56 35° N 20:50:57 10° ENE
NOSS 3-3 (A) 3.8 20:41:10 10° SW 20:46:10 74° NW 20:52:06 10° NNE
SL-08 R/B 3.2 20:42:13 10° NNE 20:47:01 78° ESE 20:51:43 10° S
Cosmos 1626 Rocket 4.3 20:44:53 10° N 20:48:57 36° ENE 20:51:00 23° SE
Cosmos 1743 3.0 20:46:36 10° NNW 20:49:31 47° W 20:51:59 13° SSW
Terra 2.0 20:45:11 10° S 20:49:50 70° WSW 20:54:31 10° NNW
GEOS 3 Rocket 4.0 20:48:21 16° SSE 20:52:34 62° WSW 20:57:54 10° NW
Delta 2 Rocket 3.6 20:50:43 10° WSW 20:53:23 26° S 20:53:26 26° S
IRS-1A Rocket 4.4 20:50:47 14° SSE 20:55:50 90° ENE 21:01:46 10° NNW
Cosmos 909 Rocket 4.2 20:50:05 10° SW 20:56:30 78° WNW 21:02:54 10° NNE
Cosmos 2061 Rocket 3.9 20:50:43 10° S 20:56:53 78° E 21:03:12 10° N
Cosmos 2151 3.9 20:53:14 10° NNE 20:56:53 30° ENE 20:58:09 25° ESE
Cosmos 2322 Rocket 3.7 20:53:14 10° N 20:57:39 23° NE 21:00:46 15° E
Cosmos 2082 Rocket 3.0 20:52:33 10° SW 20:58:07 54° WNW 21:03:44 10° NNE
Helios 1A Rocket 4.2 20:55:56 10° N 20:58:44 30° WNW 21:01:32 10° SW
Cosmos 2237 4.2 20:53:35 10° NNW 20:59:21 81° ENE 21:03:03 23° SSE
ADEOS 3.8 20:54:57 13° S 20:59:34 71° WSW 21:04:47 10° NNW
Cosmos 1375 Rocket 4.5 20:58:10 10° SSW 21:04:33 71° ESE 21:11:05 10° NE
Cosmos 2369 3.8 20:59:36 10° NNW 21:05:20 80° WSW 21:09:06 22° SSE
CZ-4B R/B 3.4 21:09:42 29° E 21:10:06 30° ENE 21:13:09 10° N
Milstar 3 4.2 21:05:02 10° WSW 21:10:22 24° S 21:13:16 20° SSE
USA 186 1.1 21:11:04 71° SE 21:11:18 82° E 21:14:03 10° N
MOS 1-B 4.3 21:08:38 22° SSE 21:12:32 87° ENE 21:18:22 10° NNW
Okean O Rocket 1.5 21:11:14 27° S 21:13:33 84° W 21:17:51 10° NNW
Cosmos 2228 4.3 21:13:01 10° SSW 21:16:51 38° WNW 21:20:42 10° N
NOSS 3-3 (C) 4.5 21:13:09 10° SW 21:18:10 53° NW 21:24:06 10° NNE
DELTA 2 R/B (1) 3.5 21:15:32 10° W 21:21:06 75° S 21:24:09 27° ESE
Cosmos 1805 4.4 21:20:08 10° NNE 21:22:21 23° ENE 21:22:21 23° ENE
Cosmos 2278 4.2 21:18:32 10° NNW 21:24:03 47° ENE 21:26:23 31° ESE
Cosmos 1544 Rocket 3.5 21:22:18 24° S 21:24:52 83° W 21:29:13 10° N
CZ-2C R/B 4.1 21:27:14 18° NE 21:27:14 18° NE 21:28:32 10° NNE
SL-16 R/B 2.3 21:22:58 10° NNW 21:28:38 66° ENE 21:30:55 36° SE
Cosmos 2084 Rocket 4.5 21:26:07 10° NW 21:30:00 36° WSW 21:31:26 28° SSW
BREEZE-M DEB (TANK) 4.1 21:27:33 10° WNW 21:31:10 55° SSW 21:35:09 29° SSE
Cosmos 1891 Rocket 4.3 21:29:44 22° S 21:33:52 85° E 21:39:57 10° N
NOSS 3-4 (A) 4.4 21:27:51 10° NNW 21:34:28 50° NE 21:38:39 26° ESE
Okean-O 3.2 21:32:20 26° SSW 21:34:28 50° W 21:38:45 10° NNW
NOSS 3-4 (C) 4.4 21:28:29 10° NNW 21:35:06 49° NE 21:39:18 26° ESE
Cosmos 1933 3.2 21:37:02 44° SSW 21:38:06 74° W 21:41:55 10° N
COSMOS 2406 4.0 21:33:40 10° SW 21:39:16 54° WNW 21:44:55 10° NNE
Ariane Rocket 3.0 21:38:06 43° SE 21:39:37 64° ENE 21:44:38 10° N
Cosmos 1980 Rocket 4.3 21:39:38 10° NW 21:43:30 19° W 21:47:21 10° SW
SPOT 3 Rocket 3.4 21:41:43 41° SSE 21:43:33 90° WNW 21:48:43 10° NNW
Cosmos 1758 Rocket 4.1 21:41:47 10° NNW 21:46:06 56° W 21:47:38 36° SSW
Meteor 1-20 Rocket 4.4 21:43:59 10° NNW 21:49:34 71° W 21:52:02 35° S
Cosmos 1763 Rocket 3.6 21:53:12 50° SE 21:53:43 52° ESE 21:58:50 10° NNE
Nadezhda 4 Rocket 4.0 21:48:25 10° N 21:54:28 61° E 21:56:13 44° SE
Okean 1 4.1 21:56:18 36° NE 21:56:18 36° NE 21:58:44 10° NNE
Cosmos 2333 Rocket 2.2 21:50:54 10° NNW 21:56:37 84° WSW 21:58:17 49° SSE
DNEPR-1 R/B 4.5 21:51:55 10° NNW 21:57:39 72° ENE 21:59:54 43° SE
Cosmos 1833 4.2 21:57:58 50° SSE 21:59:03 60° ESE 22:04:37 10° NNE
Cosmos 1825 Rocket 3.8 21:55:03 10° N 21:59:16 53° ENE 21:59:16 53° ENE
CZ-4B R/B 3.5 22:05:27 53° SSW 22:06:23 67° WSW 22:11:11 10° NNW
Cosmos 1602 Rocket 3.9 22:06:04 10° NNW 22:10:16 54° W 22:10:49 50° WSW
Cosmos 2360 Rocket 2.2 22:04:37 10° NNW 22:10:18 73° ENE 22:11:23 57° SE
USA 290 3.9 22:12:10 31° N 22:12:10 31° N 22:13:59 10° NNE
ISS -0.8 22:10:24 10° NNW 22:12:23 15° N 22:14:18 10° NE
BREEZE-M DEB (TANK) 4.5 22:12:06 10° NW 22:13:11 13° N 22:13:11 13° N
Cosmos 2058 Rocket 4.3 22:14:25 29° ENE 22:14:25 29° ENE 22:17:10 10° NNE
Cosmos 2026 Rocket 4.3 22:10:53 10° N 22:17:06 52° ENE 22:18:17 46° ESE
Cosmos 2333 4.2 22:12:18 10° NNW 22:18:02 70° ENE 22:19:00 58° ESE
Cosmos 1777 Rocket 3.8 22:15:31 10° NNW 22:20:45 81° WSW 22:21:18 71° S
Cosmos 2098 Rocket 4.0 22:20:59 36° SW 22:22:21 46° W 22:26:32 10° N
Cosmos 2219 Rocket 2.4 22:18:05 10° NNW 22:23:41 58° ENE 22:24:29 53° E
Helios 1A 4.2 22:20:13 10° NNE 22:22:30 31° NE 22:22:30 31° NE
Cosmos 1076 Rocket 3.7 22:24:23 10° N 22:28:03 65° N 22:28:03 65° N
Cosmos 1503 Rocket 3.8 22:24:11 10° NNW 22:29:22 89° W 22:29:38 82° S
Cosmos 2322 Rocket 2.4 22:36:30 10° NNW 22:42:03 58° WSW 22:42:34 56° SW
Cosmos 1354 Rocket 3.9 22:38:30 10° NNW 22:43:43 83° ENE 22:43:43 83° ENE
Cosmos 540 Rocket 4.1 22:52:54 43° WSW 22:53:56 50° WNW 22:58:57 10° N
Cosmos 2237 Rocket 4.2 22:56:21 10° N 23:00:08 18° NE 23:02:16 15° ENE
Meteor 1-26 Rocket 4.3 22:59:42 60° WSW 23:00:16 64° WNW 23:05:54 10° N
Aureole 1 Rocket 4.0 22:55:58 10° NNW 23:02:01 78° ENE 23:02:46 69° SE
Cosmos 1092 Rocket 3.8 22:58:23 10° N 23:04:34 80° W 23:05:07 73° SSW
Meteor 2-2 Rocket 4.3 23:05:51 66° WSW 23:06:17 69° W 23:12:02 10° N
Cosmos-2242 4.2 23:10:18 37° NW 23:10:18 37° NW 23:13:23 10° N
Cosmos 468 Rocket 4.2 23:10:30 66° WNW 23:10:33 66° WNW 23:15:48 10° NNE
COSMOS 2428 3.3 23:06:21 10° NNW 23:11:50 46° ENE 23:12:10 45° ENE
SL-16 R/B 4.1 23:08:32 10° WNW 23:12:04 17° W 23:12:46 17° WSW
Helios 1B rocket 4.4 23:29:08 21° NNW 23:29:08 21° NNW 23:30:29 10° NNW
Cosmos 2221 3.9 23:35:23 36° N 23:35:23 36° N 23:37:54 10° N
USA 234 3.1 23:27:57 10° NE 23:34:29 74° SE 23:34:29 74° SE
CZ-2C R/B 4.1 23:31:04 10° NNE 23:35:48 41° ENE 23:35:48 41° ENE
ACS3 Solar Sail 3.7 23:34:13 10° NE 23:37:20 15° E 23:37:20 15° E
Cosmos 2279 Rocket 4.0 23:37:49 66° WSW 23:38:13 68° W 23:44:28 10° N
Cosmos 2297 Rocket 2.7 23:43:29 49° ENE 23:43:29 49° ENE 23:47:55 10° NNE
Meteor 1-14 Rocket 4.3 23:36:50 10° NNW 23:41:50 72° NW 23:41:50 72° NW
Cosmos 1898 Rocket 3.8 23:37:54 10° NNW 23:42:13 63° NNW 23:42:13 63° NNW
Cosmos 44 4.3 23:41:16 10° NW 23:45:12 44° WNW 23:45:12 44° WNW
ISS -0.5 23:46:52 10° NW 23:47:14 12° NW 23:47:14 12° NW
Cosmos 2360 Rocket 4.3 23:50:25 10° WNW 23:53:08 15° W 23:53:08 15° W
